Regional Weather Roundup
Issued by NWS Kansas City/Pleasant Hill, MO

Home | Current Version | Previous Version | Graphics & Text | Print | Product List | Glossary Off
Versions: 1 2 3 4 5 6 7 8 9 10 11 12 13 14 15 16 17 18 19 20 21 22 23 24 25 26 27

000
ASUS43 KEAX 220410
RWREAX

WEATHER ROUNDUP FOR EASTERN KANSAS AND NORTHWEST MISSOURI
NATIONAL WEATHER SERVICE KANSAS CITY/PLEASANT HILL MO
1100 PM CDT SAT APR 21 2018

KSZ040-057-103>105-MOZ028-029-037-043-220500-
...KANSAS CITY METROPOLITAN AREA...

CITY           SKY/WX    TMP DP  RH WIND       PRES   REMARKS
K.C. INTL      CLOUDY    55  29  36 NE10      30.16S
K.C. DOWNTOWN  CLOUDY    59  28  30 NE8       30.14S
LEES SUMMIT    CLOUDY    57  29  34 NE10      30.15S
OLATHE - IXD   CLOUDY    56  33  42 E6        30.15S
OLATHE - OJC   CLOUDY    56  29  35 NE12      30.14R
LAWRENCE       CLOUDY    50  43  77 CALM      30.15R

$$

MOZ001>008-011>017-020>025-030>033-038>040-044>046-053-054-220500-
...NORTHERN AND CENTRAL MISSOURI...

CITY           SKY/WX    TMP DP  RH WIND       PRES   REMARKS
ST. JOSEPH     CLOUDY    56  31  38 NE12      30.20R
MOSBY          CLOUDY    57  27  30 E8        30.17S
WARRENSBURG    CLOUDY    55  30  38 NE9       30.13F
WHITEMAN AFB   PTCLDY    56  32  39 E8        30.10S
CLINTON        CLOUDY    55  32  41 NE8       30.12F
SEDALIA        CLOUDY    59  33  37 E10       30.15S
WARSAW         NOT AVBL
CHILLICOTHE      N/A     56  29  35 E6        30.20R
KIRKSVILLE     CLOUDY    53  31  42 E13       30.22S

$$

MOZ041-047>049-056>058-063>065-088>090-097-220500-
...EASTERN AND SOUTHERN MISSOURI...

CITY           SKY/WX    TMP DP  RH WIND       PRES   REMARKS
ST. LOUIS INTL CLOUDY    59  32  36 NE12      30.20F
SPIRIT OF STL  CLOUDY    58  35  42 E7        30.18F
COLUMBIA       CLOUDY    59  31  34 E14       30.15F
JEFFERSON CITY CLOUDY    61  32  33 E9        30.14F
ROLLA          CLOUDY    59  34  39 E12       30.14F
OSAGE BEACH    CLOUDY    61  36  39 E8        30.13S
SPRINGFIELD    CLOUDY    57  47  69 E7        30.07F
BRANSON        CLOUDY    55  48  76 CALM      30.05F
JOPLIN         LGT RAIN  52  52 100 NE5       30.07F
WEST PLAINS    CLOUDY    61  34  36 E8        30.09F

$$

IAZ060-094-KSZ022-034>040-054-083-096-NEZ052-066-093-220500-
...KANSAS...SOUTHEAST NEBRASKA AND IOWA...

CITY           SKY/WX    TMP DP  RH WIND       PRES   REMARKS
TOPEKA         CLOUDY    49  44  83 S5        30.15S
MANHATTAN      LGT RAIN  47  43  86 VRB6      30.19S
EMPORIA        LGT RAIN  45  42  89 N8        30.14F FOG
CHANUTE        LGT RAIN  47  46  97 N8        30.12F FOG
WICHITA        LGT RAIN  46  45  96 N13       30.16S
OMAHA          CLOUDY    53  27  36 E10       30.25S
LINCOLN        CLOUDY    47  36  65 N5        30.25S
FALLS CITY     MOCLDY    52  32  46 NE7       30.20R
LAMONI         CLOUDY    51  28  41 NE12      30.22F
DES MOINES     MOCLDY    52  29  41 E9        30.28F

$$





USA.gov is the U.S. government's official web portal to all federal, state and local government web resources and services.